FDX23 PANC-VHHH

Flight info

Callsign FDX23
Flight time N/A
Altitude 34000
Route NODLE R220 NICHO M523 HAVAM DCT NIKLL/N0485F350 R220 NRKEY/N0478F360 R220 NUBDA/N0479F370 R220 NODAN/N0486F360 R217 ELDAK/N0488F380 R217 GTC Y142 SAMON Y14 SUGNO Y16 SAPRA Y685 BULGA A586 PSN Y572 CJU Z82 PANSI Y711 MUGUS Y742 SALMI Q11 DRAKE DCT APU A1 ELATO V522 ABBEY
Aircraft B77L/H-SDE1E2E3FGHIJ2J3J4J5M1RWXY/LB1D1

Departure

Time 2026-05-01 09:05
Airport Ted Stevens Anchorage International Airport (PANC)

Arrival

Time N/A
Airport Hong Kong International Airport (VHHH)
Time Latitude Longitude Altitude Speed Heading
2026-05-01 07:53 61.18991 -150.00269 128 ft 0 kts 254°
2026-05-01 07:58 61.18991 -150.00268 128 ft 0 kts 254°
2026-05-01 08:06 61.18991 -150.00267 128 ft 0 kts 254°
2026-05-01 08:14 61.18991 -150.00266 128 ft 0 kts 254°
2026-05-01 08:15 61.18992 -150.00266 128 ft 0 kts 254°
2026-05-01 08:22 61.18992 -150.00265 128 ft 0 kts 254°
2026-05-01 08:32 61.18992 -150.00264 125 ft 0 kts 254°
2026-05-01 08:46 61.18993 -150.00255 127 ft 2 kts 255°
2026-05-01 08:46 61.18997 -150.00217 122 ft 3 kts 262°
2026-05-01 08:47 61.18999 -150.00176 122 ft 3 kts 272°
2026-05-01 08:47 61.18997 -150.00135 117 ft 3 kts 291°
2026-05-01 08:47 61.18988 -150.00103 110 ft 3 kts 328°
2026-05-01 08:47 61.18980 -150.00095 114 ft 0 kts 346°
2026-05-01 08:48 61.18980 -150.00094 113 ft 0 kts 346°
2026-05-01 08:53 61.18990 -150.00100 119 ft 4 kts 345°
2026-05-01 08:54 61.19038 -150.00126 114 ft 10 kts 345°
2026-05-01 08:54 61.19114 -150.00169 123 ft 11 kts 343°
2026-05-01 08:54 61.19161 -150.00286 127 ft 11 kts 272°
2026-05-01 08:54 61.19140 -150.00446 136 ft 12 kts 255°
2026-05-01 08:55 61.19140 -150.00603 139 ft 11 kts 308°
2026-05-01 08:55 61.19212 -150.00674 144 ft 11 kts 343°
2026-05-01 08:55 61.19289 -150.00718 147 ft 12 kts 345°
2026-05-01 08:55 61.19366 -150.00761 149 ft 12 kts 345°
2026-05-01 08:56 61.19443 -150.00804 151 ft 11 kts 345°
2026-05-01 08:56 61.19507 -150.00843 153 ft 9 kts 337°
2026-05-01 08:56 61.19537 -150.00952 154 ft 9 kts 267°
2026-05-01 08:56 61.19534 -150.00986 154 ft 0 kts 257°
2026-05-01 08:57 61.19534 -150.00985 154 ft 0 kts 257°
2026-05-01 09:03 61.19533 -150.00988 148 ft 1 kts 257°
2026-05-01 09:03 61.19526 -150.01060 154 ft 9 kts 257°
2026-05-01 09:03 61.19494 -150.01166 155 ft 9 kts 200°
2026-05-01 09:04 61.19432 -150.01148 154 ft 6 kts 163°
2026-05-01 09:04 61.19430 -150.01147 154 ft 0 kts 165°
2026-05-01 09:04 61.19425 -150.01144 155 ft 6 kts 165°
2026-05-01 09:04 61.19183 -150.01010 149 ft 80 kts 165°
2026-05-01 09:05 61.18332 -150.00535 132 ft 171 kts 165°
2026-05-01 09:05 61.17047 -149.99786 649 ft 193 kts 165°
2026-05-01 09:05 61.15734 -149.99544 1611 ft 197 kts 190°
2026-05-01 09:05 61.14416 -150.00841 1862 ft 226 kts 210°
2026-05-01 09:06 61.13031 -150.02704 2275 ft 246 kts 210°
2026-05-01 09:06 61.11580 -150.04635 3095 ft 251 kts 207°
2026-05-01 09:06 61.10078 -150.06480 3795 ft 251 kts 203°
2026-05-01 09:06 61.08549 -150.08145 4561 ft 247 kts 198°
2026-05-01 09:07 61.06990 -150.09604 5499 ft 244 kts 194°
2026-05-01 09:07 61.05429 -150.10878 6540 ft 238 kts 192°
2026-05-01 09:07 61.03911 -150.12188 7377 ft 243 kts 206°
2026-05-01 09:07 61.02722 -150.14865 8109 ft 264 kts 232°
2026-05-01 09:08 61.02053 -150.18452 9048 ft 273 kts 247°
2026-05-01 09:08 61.01794 -150.22381 9916 ft 284 kts 265°
2026-05-01 09:08 61.02204 -150.26491 10508 ft 302 kts 279°
2026-05-01 09:08 61.02874 -150.30807 10697 ft 329 kts 281°
2026-05-01 09:09 61.03627 -150.35438 10905 ft 353 kts 282°
2026-05-01 09:09 61.04439 -150.40399 11182 ft 375 kts 282°
2026-05-01 09:09 61.05284 -150.45571 11811 ft 384 kts 282°
2026-05-01 09:09 61.06134 -150.50844 12600 ft 390 kts 282°
2026-05-01 09:10 61.06987 -150.56185 13471 ft 393 kts 282°
2026-05-01 09:10 61.07835 -150.61577 14264 ft 396 kts 281°
2026-05-01 09:10 61.08674 -150.67020 14998 ft 400 kts 281°
2026-05-01 09:10 61.09521 -150.72530 15694 ft 405 kts 281°
2026-05-01 09:11 61.10375 -150.78112 16391 ft 409 kts 281°
2026-05-01 09:11 61.11232 -150.83753 17075 ft 414 kts 281°
2026-05-01 09:11 61.12091 -150.89457 17801 ft 418 kts 281°
2026-05-01 09:11 61.12958 -150.95229 18455 ft 422 kts 281°
2026-05-01 09:12 61.13835 -151.01049 19066 ft 426 kts 281°
2026-05-01 09:12 61.14722 -151.06917 19732 ft 429 kts 281°
2026-05-01 09:12 61.15608 -151.12834 20326 ft 432 kts 281°
2026-05-01 09:12 61.16500 -151.18809 20953 ft 435 kts 281°
2026-05-01 09:13 61.17393 -151.24826 21567 ft 439 kts 281°
2026-05-01 09:13 61.18291 -151.30889 22207 ft 442 kts 281°
2026-05-01 09:13 61.19192 -151.36994 22814 ft 445 kts 281°
2026-05-01 09:13 61.20098 -151.43151 23405 ft 448 kts 281°
2026-05-01 09:14 61.21009 -151.49367 23913 ft 451 kts 281°
2026-05-01 09:14 61.21921 -151.55614 24425 ft 454 kts 281°
2026-05-01 09:14 61.22836 -151.61907 24936 ft 457 kts 281°
2026-05-01 09:14 61.23752 -151.68239 25427 ft 459 kts 281°
2026-05-01 09:15 61.24660 -151.74530 25944 ft 462 kts 281°
2026-05-01 09:15 61.25583 -151.80939 26466 ft 464 kts 281°
2026-05-01 09:15 61.26505 -151.87374 26949 ft 467 kts 281°
2026-05-01 09:15 61.27434 -151.93869 27378 ft 469 kts 279°
2026-05-01 09:16 61.28137 -152.00472 27830 ft 468 kts 273°
2026-05-01 09:16 61.28449 -152.07179 28283 ft 464 kts 265°
2026-05-01 09:16 61.28452 -152.13889 28736 ft 465 kts 264°
2026-05-01 09:17 61.28453 -152.27437 29519 ft 471 kts 264°
2026-05-01 09:17 61.28466 -152.34269 29945 ft 473 kts 264°
2026-05-01 09:17 61.28507 -152.47922 30844 ft 471 kts 265°
2026-05-01 09:18 61.28527 -152.54730 31237 ft 471 kts 265°
2026-05-01 09:18 61.28557 -152.68381 31938 ft 472 kts 265°
2026-05-01 09:19 61.28573 -152.81945 32857 ft 468 kts 265°
2026-05-01 09:19 61.28575 -152.88721 33162 ft 470 kts 265°
2026-05-01 09:19 61.28572 -152.95521 33441 ft 471 kts 265°
2026-05-01 09:20 61.28555 -153.09189 33772 ft 476 kts 265°
2026-05-01 09:21 61.28487 -153.36608 33806 ft 475 kts 265°
2026-05-01 09:21 61.28396 -153.57282 33761 ft 478 kts 265°
2026-05-01 09:22 61.28229 -153.84987 33707 ft 479 kts 265°
2026-05-01 09:23 61.28068 -154.05639 33694 ft 478 kts 265°
2026-05-01 09:24 61.27873 -154.26311 33643 ft 474 kts 264°
2026-05-01 09:25 61.27570 -154.53520 33593 ft 467 kts 264°
2026-05-01 09:26 61.27308 -154.73737 33586 ft 466 kts 264°
2026-05-01 09:26 61.27016 -154.93997 33596 ft 469 kts 263°
2026-05-01 09:27 61.26692 -155.14364 33587 ft 472 kts 263°
2026-05-01 09:28 61.26458 -155.28000 33578 ft 473 kts 263°
2026-05-01 09:28 61.26211 -155.41656 33578 ft 473 kts 263°
2026-05-01 09:29 61.25814 -155.62162 33598 ft 474 kts 263°
2026-05-01 09:30 61.25386 -155.82682 33567 ft 474 kts 263°
2026-05-01 09:30 61.24874 -156.03034 33561 ft 469 kts 259°
2026-05-01 09:31 61.24144 -156.16465 33561 ft 467 kts 258°
2026-05-01 09:32 61.22980 -156.36544 33558 ft 467 kts 258°
2026-05-01 09:32 61.21808 -156.56761 33564 ft 469 kts 258°
2026-05-01 09:33 61.21023 -156.70139 33563 ft 471 kts 258°
2026-05-01 09:34 61.19808 -156.90404 33552 ft 473 kts 258°
2026-05-01 09:34 61.18558 -157.10716 33565 ft 474 kts 258°
2026-05-01 09:35 61.17272 -157.31075 33556 ft 477 kts 258°
2026-05-01 09:36 61.16393 -157.44712 33558 ft 478 kts 258°
2026-05-01 09:36 61.15500 -157.58371 33547 ft 479 kts 258°
2026-05-01 09:37 61.14591 -157.72046 33542 ft 480 kts 258°
2026-05-01 09:37 61.13200 -157.92564 33535 ft 480 kts 257°
2026-05-01 09:38 61.11779 -158.13047 33532 ft 479 kts 257°
2026-05-01 09:39 61.10331 -158.33469 33521 ft 478 kts 257°
2026-05-01 09:39 61.09357 -158.46947 33531 ft 477 kts 257°
2026-05-01 09:40 61.07862 -158.67265 33511 ft 476 kts 257°
2026-05-01 09:41 61.06850 -158.80777 33514 ft 476 kts 258°
2026-05-01 09:41 61.05306 -159.01030 33491 ft 476 kts 258°
2026-05-01 09:42 61.04261 -159.14508 33476 ft 475 kts 257°
2026-05-01 09:43 61.02136 -159.41396 33473 ft 475 kts 257°
2026-05-01 09:43 61.01052 -159.54834 33464 ft 475 kts 257°
2026-05-01 09:44 60.99398 -159.75030 33457 ft 479 kts 257°
2026-05-01 09:45 60.98267 -159.88584 33448 ft 482 kts 257°
2026-05-01 09:45 60.96537 -160.09026 33438 ft 484 kts 256°
2026-05-01 09:46 60.95372 -160.22594 33438 ft 485 kts 256°
2026-05-01 09:46 60.94185 -160.36247 33427 ft 485 kts 256°
2026-05-01 09:47 60.92984 -160.49887 33430 ft 485 kts 256°
2026-05-01 09:47 60.91767 -160.63534 33425 ft 485 kts 256°
2026-05-01 09:48 60.90537 -160.77164 33405 ft 485 kts 256°
2026-05-01 09:48 60.89294 -160.90773 33404 ft 485 kts 256°
2026-05-01 09:49 60.88038 -161.04370 33391 ft 485 kts 256°
2026-05-01 09:49 60.86768 -161.17946 33403 ft 484 kts 256°
2026-05-01 09:50 60.85484 -161.31522 33371 ft 484 kts 257°
2026-05-01 09:50 60.84187 -161.45074 33377 ft 484 kts 256°
2026-05-01 09:51 60.82877 -161.58619 33375 ft 484 kts 256°
2026-05-01 09:51 60.81554 -161.72149 33397 ft 484 kts 256°
2026-05-01 09:52 60.80216 -161.85672 33392 ft 484 kts 256°
2026-05-01 09:52 60.78865 -161.99184 33400 ft 485 kts 257°
2026-05-01 09:53 60.77499 -162.12699 33388 ft 485 kts 257°
2026-05-01 09:53 60.76127 -162.26128 33393 ft 486 kts 256°
2026-05-01 09:54 60.74731 -162.39647 33383 ft 486 kts 257°
2026-05-01 09:54 60.73320 -162.53173 33384 ft 487 kts 257°
2026-05-01 09:55 60.72126 -162.64513 33380 ft 487 kts 256°
2026-05-01 09:55 60.70690 -162.78040 33385 ft 488 kts 256°
2026-05-01 09:56 60.69099 -162.91500 33374 ft 488 kts 253°
2026-05-01 09:56 60.67223 -163.04717 33377 ft 488 kts 252°
2026-05-01 09:57 60.65310 -163.18014 33375 ft 489 kts 252°
2026-05-01 09:57 60.63401 -163.31324 33370 ft 490 kts 252°
2026-05-01 09:58 60.61485 -163.44643 33369 ft 490 kts 252°
2026-05-01 09:58 60.59558 -163.57936 33376 ft 489 kts 252°
2026-05-01 09:59 60.57621 -163.71191 33359 ft 488 kts 252°
2026-05-01 09:59 60.55676 -163.84389 33355 ft 487 kts 252°
2026-05-01 10:00 60.53724 -163.97532 33354 ft 485 kts 252°
2026-05-01 10:00 60.51762 -164.10638 33357 ft 485 kts 252°
2026-05-01 10:01 60.49790 -164.23709 33348 ft 484 kts 252°
2026-05-01 10:01 60.47805 -164.36766 33352 ft 484 kts 252°
2026-05-01 10:02 60.45811 -164.49789 33337 ft 484 kts 252°
2026-05-01 10:02 60.43805 -164.62797 33333 ft 484 kts 251°
2026-05-01 10:03 60.41787 -164.75785 33329 ft 483 kts 251°
2026-05-01 10:03 60.39760 -164.88746 33330 ft 483 kts 251°
2026-05-01 10:04 60.37724 -165.01703 33329 ft 483 kts 251°
2026-05-01 10:04 60.35676 -165.14650 33318 ft 484 kts 251°
2026-05-01 10:05 60.33614 -165.27591 33327 ft 484 kts 251°
2026-05-01 10:05 60.31538 -165.40521 33326 ft 485 kts 251°
2026-05-01 10:06 60.29448 -165.53445 33320 ft 485 kts 251°
2026-05-01 10:06 60.27358 -165.66277 33317 ft 485 kts 251°
2026-05-01 10:07 60.25240 -165.79186 33320 ft 485 kts 251°
2026-05-01 10:07 60.23109 -165.92081 33324 ft 485 kts 251°
2026-05-01 10:08 60.19892 -166.11379 33318 ft 485 kts 251°
2026-05-01 10:09 60.17734 -166.24208 33324 ft 485 kts 250°
2026-05-01 10:09 60.15561 -166.37034 33316 ft 485 kts 250°
2026-05-01 10:10 60.13379 -166.49822 33310 ft 484 kts 250°
2026-05-01 10:10 60.10085 -166.68966 33316 ft 484 kts 250°
2026-05-01 10:11 60.07876 -166.81697 33315 ft 484 kts 250°
2026-05-01 10:11 60.05654 -166.94412 33316 ft 483 kts 250°
2026-05-01 10:12 60.03423 -167.07092 33312 ft 483 kts 250°
2026-05-01 10:13 60.00066 -167.26008 33316 ft 483 kts 250°
2026-05-01 10:13 59.97803 -167.38657 33327 ft 483 kts 249°
2026-05-01 10:14 59.94395 -167.57547 33318 ft 482 kts 249°
2026-05-01 10:14 59.92116 -167.70093 33312 ft 481 kts 249°
2026-05-01 10:15 59.89835 -167.82604 33318 ft 480 kts 249°
2026-05-01 10:15 59.87579 -167.95118 33318 ft 480 kts 249°
2026-05-01 10:16 59.85317 -168.07617 33326 ft 480 kts 249°
2026-05-01 10:17 59.81895 -168.26340 33318 ft 480 kts 249°
2026-05-01 10:17 59.78443 -168.45036 33325 ft 481 kts 249°
2026-05-01 10:18 59.74963 -168.63692 33321 ft 481 kts 249°
2026-05-01 10:19 59.72628 -168.76111 33328 ft 481 kts 249°
2026-05-01 10:19 59.70282 -168.88510 33338 ft 480 kts 248°
2026-05-01 10:20 59.66748 -169.07033 33331 ft 479 kts 248°
2026-05-01 10:20 59.64378 -169.19356 33329 ft 479 kts 248°
2026-05-01 10:21 59.60819 -169.37729 33332 ft 479 kts 248°
2026-05-01 10:22 59.57218 -169.56143 33352 ft 479 kts 248°
2026-05-01 10:23 59.53600 -169.74474 33334 ft 477 kts 248°
2026-05-01 10:23 59.49971 -169.92687 33350 ft 475 kts 248°
2026-05-01 10:24 59.45105 -170.16856 33357 ft 476 kts 247°
2026-05-01 10:25 59.40182 -170.41017 33366 ft 477 kts 247°
2026-05-01 10:26 59.37701 -170.53080 33361 ft 477 kts 247°
2026-05-01 10:27 59.32708 -170.77154 33367 ft 476 kts 247°
2026-05-01 10:28 59.28939 -170.95140 33369 ft 476 kts 246°
2026-05-01 10:28 59.25146 -171.13080 33376 ft 476 kts 246°
2026-05-01 10:29 59.21333 -171.30963 33385 ft 475 kts 246°
2026-05-01 10:30 59.16215 -171.54738 33395 ft 475 kts 246°
2026-05-01 10:31 59.11247 -171.78596 33389 ft 475 kts 247°
2026-05-01 10:32 59.07633 -171.96483 33395 ft 472 kts 247°
2026-05-01 10:33 59.02762 -172.20123 33411 ft 470 kts 246°
2026-05-01 10:34 58.99084 -172.37764 33425 ft 470 kts 246°
2026-05-01 10:34 58.96618 -172.49509 33409 ft 470 kts 246°
2026-05-01 10:35 58.92919 -172.67004 33435 ft 470 kts 246°
2026-05-01 10:35 58.90430 -172.78694 33416 ft 470 kts 246°
2026-05-01 10:36 58.86674 -172.96209 33430 ft 470 kts 246°
2026-05-01 10:37 58.84157 -173.07865 33421 ft 471 kts 245°
2026-05-01 10:37 58.80352 -173.25357 33451 ft 472 kts 245°
2026-05-01 10:38 58.77796 -173.37029 33452 ft 473 kts 245°
2026-05-01 10:38 58.75227 -173.48696 33430 ft 473 kts 245°
2026-05-01 10:39 58.72645 -173.60357 33441 ft 474 kts 245°
2026-05-01 10:39 58.70052 -173.72006 33491 ft 474 kts 245°
2026-05-01 10:40 58.67451 -173.83638 33449 ft 473 kts 244°
2026-05-01 10:40 58.64860 -173.95241 33445 ft 472 kts 245°
2026-05-01 10:41 58.62337 -174.06857 33456 ft 471 kts 245°
2026-05-01 10:42 58.58546 -174.24270 33464 ft 473 kts 245°
2026-05-01 10:42 58.55986 -174.35902 33466 ft 475 kts 245°
2026-05-01 10:43 58.53402 -174.47562 33469 ft 476 kts 245°
2026-05-01 10:43 58.51241 -174.57266 33468 ft 477 kts 244°
2026-05-01 10:44 58.48629 -174.68928 33473 ft 477 kts 244°
2026-05-01 10:44 58.46008 -174.80570 33474 ft 477 kts 244°
2026-05-01 10:45 58.43382 -174.92174 33470 ft 476 kts 244°
2026-05-01 10:45 58.40750 -175.03735 33491 ft 475 kts 244°
2026-05-01 10:46 58.38115 -175.15252 33485 ft 473 kts 244°
2026-05-01 10:46 58.35472 -175.26744 33480 ft 474 kts 244°
2026-05-01 10:47 58.32815 -175.38226 33491 ft 475 kts 244°
2026-05-01 10:47 58.30140 -175.49723 33489 ft 476 kts 243°
2026-05-01 10:48 58.27450 -175.61224 33492 ft 476 kts 243°
2026-05-01 10:48 58.24747 -175.72725 33501 ft 477 kts 243°
2026-05-01 10:49 58.22052 -175.84135 33496 ft 477 kts 243°
2026-05-01 10:49 58.19327 -175.95606 33493 ft 476 kts 243°
2026-05-01 10:50 58.16599 -176.07032 33502 ft 476 kts 243°
2026-05-01 10:50 58.13864 -176.18420 33501 ft 475 kts 243°
2026-05-01 10:51 58.11119 -176.29796 33507 ft 476 kts 243°
2026-05-01 10:51 58.08355 -176.41183 33515 ft 477 kts 243°
2026-05-01 10:52 58.05573 -176.52591 33505 ft 478 kts 242°
2026-05-01 10:52 58.02778 -176.64003 33519 ft 479 kts 243°
2026-05-01 10:53 57.99970 -176.75408 33521 ft 480 kts 242°
2026-05-01 10:53 57.97152 -176.86808 33522 ft 480 kts 243°
2026-05-01 10:54 57.94332 -176.98201 33537 ft 480 kts 242°
2026-05-01 10:54 57.91504 -177.09574 33521 ft 479 kts 242°
2026-05-01 10:55 57.88674 -177.20895 33516 ft 478 kts 242°
2026-05-01 10:55 57.85830 -177.32209 33538 ft 479 kts 242°
2026-05-01 10:56 57.82974 -177.43512 33528 ft 480 kts 242°
2026-05-01 10:56 57.80101 -177.54826 33525 ft 481 kts 242°
2026-05-01 10:57 57.77215 -177.66134 33530 ft 482 kts 242°
2026-05-01 10:57 57.74334 -177.77369 33535 ft 482 kts 242°
2026-05-01 10:58 57.71421 -177.88667 33544 ft 482 kts 241°
2026-05-01 10:58 57.68499 -177.99942 33537 ft 482 kts 241°
2026-05-01 10:59 57.65570 -178.11190 33546 ft 481 kts 241°
2026-05-01 10:59 57.62631 -178.22420 33553 ft 482 kts 241°
2026-05-01 11:00 57.59676 -178.33656 33558 ft 483 kts 241°
2026-05-01 11:00 57.56705 -178.44886 33555 ft 484 kts 241°
2026-05-01 11:01 57.53718 -178.56126 33564 ft 484 kts 240°
2026-05-01 11:01 57.50720 -178.67358 33562 ft 485 kts 241°
2026-05-01 11:02 57.47709 -178.78582 33554 ft 485 kts 240°
2026-05-01 11:02 57.44686 -178.89794 33571 ft 485 kts 240°
2026-05-01 11:03 57.41656 -179.00976 33568 ft 484 kts 240°
2026-05-01 11:03 57.38623 -179.12114 33570 ft 484 kts 240°
2026-05-01 11:04 57.35581 -179.23228 33555 ft 484 kts 240°
2026-05-01 11:04 57.32527 -179.34331 33579 ft 484 kts 240°
2026-05-01 11:05 57.29478 -179.45364 33581 ft 485 kts 240°
2026-05-01 11:05 57.26393 -179.56474 33589 ft 486 kts 240°
2026-05-01 11:06 57.23294 -179.67580 33587 ft 487 kts 240°
2026-05-01 11:06 57.20181 -179.78683 33592 ft 487 kts 239°
2026-05-01 11:07 57.15493 -179.95301 33588 ft 487 kts 240°
2026-05-01 11:07 57.12359 179.93643 33598 ft 486 kts 240°
2026-05-01 11:08 57.09219 179.82632 33581 ft 486 kts 239°
2026-05-01 11:09 57.04486 179.66152 33597 ft 487 kts 239°
2026-05-01 11:09 57.01317 179.55155 33608 ft 487 kts 240°
2026-05-01 11:10 56.96535 179.38688 33619 ft 488 kts 239°
2026-05-01 11:10 56.93338 179.27731 33624 ft 487 kts 239°
2026-05-01 11:11 56.90135 179.16821 33614 ft 486 kts 239°
2026-05-01 11:11 56.86932 179.05942 33631 ft 485 kts 239°
2026-05-01 11:12 56.83724 178.95113 33629 ft 484 kts 238°
2026-05-01 11:12 56.80509 178.84301 33627 ft 485 kts 238°
2026-05-01 11:13 56.77278 178.73499 33645 ft 485 kts 238°
2026-05-01 11:13 56.74044 178.62709 33642 ft 485 kts 239°
2026-05-01 11:14 56.70815 178.52019 33645 ft 485 kts 238°
2026-05-01 11:14 56.67561 178.41276 33649 ft 485 kts 238°
2026-05-01 11:15 56.64302 178.30559 33660 ft 484 kts 239°
2026-05-01 11:15 56.61035 178.19884 33661 ft 483 kts 238°
2026-05-01 11:16 56.57766 178.09242 33662 ft 482 kts 238°
2026-05-01 11:16 56.54499 177.98639 33665 ft 481 kts 238°
2026-05-01 11:17 56.51225 177.88084 33675 ft 480 kts 237°
2026-05-01 11:17 56.47952 177.77550 33673 ft 480 kts 237°
2026-05-01 11:18 56.44695 177.67012 33688 ft 480 kts 239°
2026-05-01 11:18 56.41640 177.56274 33685 ft 480 kts 241°
2026-05-01 11:19 56.38628 177.45515 33692 ft 480 kts 241°
2026-05-01 11:19 56.35583 177.34799 33691 ft 480 kts 240°
2026-05-01 11:20 56.32519 177.24122 33700 ft 479 kts 240°
2026-05-01 11:20 56.29445 177.13465 33707 ft 479 kts 240°
2026-05-01 11:21 56.26348 177.02838 33700 ft 480 kts 240°
2026-05-01 11:21 56.23269 176.92273 33710 ft 480 kts 240°
2026-05-01 11:22 56.20152 176.81644 33710 ft 481 kts 240°
2026-05-01 11:22 56.17024 176.71037 33720 ft 481 kts 239°
2026-05-01 11:23 56.13886 176.60427 33715 ft 481 kts 239°
2026-05-01 11:23 56.10741 176.49831 33733 ft 482 kts 240°
2026-05-01 11:24 56.07584 176.39259 33723 ft 481 kts 239°
2026-05-01 11:25 56.02835 176.23444 33729 ft 481 kts 239°
2026-05-01 11:25 55.98073 176.07685 33744 ft 480 kts 239°
2026-05-01 11:26 55.93295 175.91967 33755 ft 480 kts 239°
2026-05-01 11:27 55.90093 175.81506 33744 ft 481 kts 240°
2026-05-01 11:27 55.86881 175.71063 33755 ft 481 kts 240°
2026-05-01 11:28 55.83666 175.60634 33756 ft 480 kts 240°
2026-05-01 11:28 55.80464 175.50297 33757 ft 481 kts 240°
2026-05-01 11:29 55.75609 175.34731 33759 ft 480 kts 239°
2026-05-01 11:30 55.70747 175.19237 33773 ft 478 kts 239°
2026-05-01 11:30 55.67506 175.08952 33757 ft 478 kts 240°
2026-05-01 11:31 55.64256 174.98691 33779 ft 478 kts 239°
2026-05-01 11:31 55.60994 174.88440 33775 ft 478 kts 239°
2026-05-01 11:32 55.57723 174.78200 33782 ft 479 kts 239°
2026-05-01 11:32 55.54436 174.67958 33783 ft 479 kts 239°
2026-05-01 11:33 55.51139 174.57719 33776 ft 480 kts 239°
2026-05-01 11:33 55.47830 174.47501 33779 ft 480 kts 239°
2026-05-01 11:34 55.44511 174.37287 33784 ft 480 kts 239°
2026-05-01 11:34 55.41750 174.28819 33778 ft 480 kts 239°
2026-05-01 11:35 55.38419 174.18651 33792 ft 479 kts 239°
2026-05-01 11:35 55.35078 174.08499 33793 ft 479 kts 239°
2026-05-01 11:36 55.31733 173.98371 33794 ft 479 kts 239°
2026-05-01 11:36 55.28379 173.88251 33797 ft 479 kts 239°
2026-05-01 11:37 55.25018 173.78160 33803 ft 479 kts 239°
2026-05-01 11:37 55.21655 173.68109 33802 ft 478 kts 239°
2026-05-01 11:38 55.18290 173.58086 33806 ft 477 kts 239°
2026-05-01 11:38 55.14923 173.48098 33800 ft 477 kts 239°
2026-05-01 11:39 55.11543 173.38120 33825 ft 477 kts 239°
2026-05-01 11:39 55.08157 173.28160 33812 ft 477 kts 239°
2026-05-01 11:40 55.04761 173.18213 33819 ft 477 kts 239°
2026-05-01 11:40 55.01353 173.08270 33813 ft 478 kts 239°
2026-05-01 11:41 54.97956 172.98400 33831 ft 478 kts 239°
2026-05-01 11:41 54.94527 172.88477 33818 ft 479 kts 239°
2026-05-01 11:42 54.91088 172.78564 33834 ft 478 kts 239°
2026-05-01 11:42 54.87646 172.68684 33832 ft 478 kts 239°
2026-05-01 11:43 54.84202 172.58840 33830 ft 477 kts 239°
2026-05-01 11:43 54.80753 172.49022 33828 ft 477 kts 239°
2026-05-01 11:44 54.75566 172.34321 33833 ft 477 kts 239°
2026-05-01 11:44 54.72093 172.24529 33838 ft 478 kts 239°
2026-05-01 11:45 54.68602 172.14731 33844 ft 479 kts 239°
2026-05-01 11:45 54.65094 172.04919 33843 ft 480 kts 239°
2026-05-01 11:46 54.61576 171.95118 33837 ft 481 kts 239°
2026-05-01 11:46 54.58044 171.85320 33847 ft 481 kts 239°
2026-05-01 11:47 54.54505 171.75539 33847 ft 481 kts 239°
2026-05-01 11:47 54.50987 171.65853 33849 ft 480 kts 239°
2026-05-01 11:48 54.47437 171.56123 33850 ft 480 kts 239°
2026-05-01 11:48 54.43886 171.46421 33847 ft 479 kts 239°
2026-05-01 11:49 54.40326 171.36738 33855 ft 479 kts 239°
2026-05-01 11:49 54.36760 171.27074 33858 ft 480 kts 239°
2026-05-01 11:50 54.33183 171.17416 33867 ft 480 kts 239°
2026-05-01 11:50 54.29596 171.07771 33859 ft 480 kts 239°
2026-05-01 11:51 54.26002 170.98145 33865 ft 480 kts 239°
2026-05-01 11:51 54.22397 170.88529 33856 ft 480 kts 239°
2026-05-01 11:52 54.18784 170.78926 33867 ft 481 kts 239°
2026-05-01 11:52 54.15161 170.69333 33866 ft 481 kts 239°
2026-05-01 11:53 54.11531 170.59759 33866 ft 481 kts 239°
2026-05-01 11:53 54.07886 170.50184 33872 ft 481 kts 239°
2026-05-01 11:54 54.04236 170.40632 33871 ft 481 kts 239°
2026-05-01 11:54 54.00579 170.31095 33878 ft 482 kts 239°
2026-05-01 11:55 53.96911 170.21568 33882 ft 482 kts 239°
2026-05-01 11:55 53.93232 170.12049 33879 ft 482 kts 239°
2026-05-01 11:56 53.89546 170.02547 33883 ft 482 kts 239°
2026-05-01 11:56 53.85850 169.93057 33882 ft 482 kts 239°
2026-05-01 11:57 53.82148 169.83586 33885 ft 482 kts 239°
2026-05-01 11:57 53.78461 169.74190 33883 ft 482 kts 239°
2026-05-01 11:58 53.74747 169.64760 33882 ft 482 kts 239°
2026-05-01 11:59 53.69167 169.50655 33879 ft 481 kts 239°
2026-05-01 11:59 53.65441 169.41275 33892 ft 481 kts 239°
2026-05-01 12:00 53.60228 169.26891 33907 ft 478 kts 245°
2026-05-01 12:01 53.55548 169.12065 33901 ft 479 kts 245°
2026-05-01 12:01 53.52391 169.02214 33887 ft 479 kts 245°
2026-05-01 12:02 53.49215 168.92380 33903 ft 479 kts 245°
2026-05-01 12:02 53.46031 168.82563 33909 ft 479 kts 245°
2026-05-01 12:03 53.42838 168.72755 33913 ft 479 kts 245°
2026-05-01 12:03 53.39635 168.62955 33913 ft 479 kts 244°
2026-05-01 12:04 53.36423 168.53166 33912 ft 479 kts 245°
2026-05-01 12:04 53.33206 168.43392 33929 ft 479 kts 245°
2026-05-01 12:05 53.29980 168.33637 33946 ft 480 kts 245°
2026-05-01 12:05 53.25105 168.19028 33935 ft 480 kts 244°
2026-05-01 12:06 53.21845 168.09315 33937 ft 479 kts 245°
2026-05-01 12:06 53.18584 167.99623 33949 ft 479 kts 245°
2026-05-01 12:07 53.15341 167.90019 33948 ft 479 kts 245°
2026-05-01 12:07 53.12069 167.80366 33952 ft 478 kts 245°
2026-05-01 12:08 53.08792 167.70739 33958 ft 478 kts 245°
2026-05-01 12:08 53.05506 167.61126 33962 ft 478 kts 245°
2026-05-01 12:09 53.02215 167.51530 33983 ft 478 kts 245°
2026-05-01 12:09 52.98913 167.41937 33982 ft 479 kts 245°
2026-05-01 12:10 52.93938 167.27561 33990 ft 479 kts 245°
2026-05-01 12:11 52.88939 167.13196 34030 ft 482 kts 246°
2026-05-01 12:11 52.87828 167.10011 34173 ft 483 kts 245°